SCP
0 0 0 0 0 0 0 0 0 0 0 0 0 0 0 0 0 0 0 0 0 0 0 0 0 0 0 0 0 0 0 0 0 0 0 0 0 0 0 0 0 0 0
0 0 0 0 0 0 0 0 0 0 0 0 0 0 0 0 0 0 0 0 0 0 0 0 0 0 0 0 0 0 0 0 0 0 0 0 0 0 0 0 0 0 0
0 0 0 0 0 0 0 0 0 0 0 0 0 0 0 0 0 0 0 0 0 0 0 0 0 0 0 0 0 0 0 0 0 0 0 0 0 0 0 0 0 0 0
0 0 0 0 0 0 0 0 0 0 0 0 0 0 0 0 0 0 0 0 0 0 0 0 0 0 0 0 0 0 0 0 0 0 0 0 0 0 0 0 0 0 0
0 0 0 0 0 0 0 0 0 0 0 0 0 0 0 0 0 0 0 0 0 0 0 0 0 0 0 0 0 0 0 0 0 0 0 0 0 0 0 0 0 0 0
0 0 0 0 0 0 0 0 0 0 0 0 0 0 0 0 0 0 0 0 0 0 0 0 0 0 0 0 0 0 0 0 0 0 0 0 0 0 0 0 0 0 0
0 0 0 0 0 0 0 0 0 0 0 0 0 0 0 0 0 0 0 0 0 0 0 0 0 0 0 0 0 0 0 0 0 0 0 0 0 0 0 0 0 0 0
0 0 0 0 0 0 0 0 0 0 0 0 0 0 0 0 0 0 0 0 0 0 0 0 0 0 0 0 0 0 0 0 0 0 0 0 0 0 0 0 0 0 0
0 0 0 0 0 0 0 0 0 0 0 0 0 0 0 0 0 0 -0 0 0 0 0 0 0 0 0 0 0 0 0 0 0 0 0 0 0 0 0 0 0 0 0
0 0 0 0 0 0 0 0 0 0 0 0 0 0 0 0 0 0 0 -0 -0 0 0 0 0 0 0 0 0 0 0 0 0 0 0 0 0 0 0 0 0 0 0
0 0 0 0 0 0 0 0 0 0 0 0 0 0 0 0 0 0 0 -0 -0 0 0 0 0 0 0 0 0 0 0 0 0 0 0 0 0 0 0 0 0 0 0
0 0 0 0 0 0 0 0 0 0 0 0 0 0 0 0 0 0 0 -0 -0 0 0 0 0 0 0 0 0 0 0 0 0 0 0 0 0 0 0 0 0 0 0
0 0 0 0 0 0 0 0 0 0 0 0 0 0 0 0 0 0 0 0 -0 0 0 0 0 0 0 0 0 0 0 0 0 0 0 0 0 0 0 0 0 0 0
0 0 0 0 0 0 0 0 0 0 0 0 0 0 0 0 0 0 0 0 0 0 -0 -0 -0 0 0 0 0 0 0 0 0 0 0 0 0 0 0 0 0 0 0
0 0 0 0 0 0 0 0 0 0 0 0 0 0 0 0 0 0 0 0 0 0 0 0 0 0 0 0 0 0 0 0 0 0 0 0 0 0 0 0 0 0 0
0 0 0 0 0 0 0 0 0 0 0 0 0 0 0 0 0 0 0 0 0 0 0 0 0 0 0 0 0 0 0 0 0 0 0 0 0 0 0 0 0 0 0
0 0 0 0 0 0 0 0 0 0 0 0 0 0 0 0 0 0 0 0 0 0 0 0 0 0 0 0 0 0 0 0 0 0 0 0 0 0 0 0 0 0 0
0 0 0 0 0 0 0 0 0 0 0 0 0 0 0 0 0 0 0 0 0 0 0 0 0 0 0 0 0 0 0 0 0 0 0 0 0 0 0 0 0 0 0
0 0 0 0 0 0 0 0 0 0 0 0 0 0 0 0 0 0 0 0 0 0 0 0 0 0 0 0 0 0 0 0 0 0 0 0 0 0 0 0 0 0 0
0 0 0 0 0 0 0 0 0 0 0 0 0 0 0 0 0 0 0 0 0 0 0 0 0 0 0 0 0 0 0 0 0 0 0 0 0 0 0 0 0 0 0
0 0 0 0 0 0 0 0 0 0 0 0 0 0 0 0 0 0 0 0 0 0 0 0 0 0 0 0 0 0 0 0 0 0 0 0 0 0 0 0 0 0 0
0 0 0 0 0 0 0 0 0 0 0 0 0 0 0 0 0 0 0 0 0 0 0 0 0 0 0 0 0 0 0 0 0 0 0 0 0 0 0 0 0 0 0
0 0 0 0 0 0 0 0 0 0 0 0 0 0 0 0 0 0 0 0 0 0 0 0 0 0 0 0 0 0 0 0 0 0 0 0 0 0 -0 0 0 0 0
0 0 0 0 0 0 0 0 0 0 0 0 0 0 0 0 0 0 0 0 0 0 0 0 0 0 0 0 0 0 0 0 0 0 0 -0 -0 0 -0 0 0 0 0
-0 0 0 0 0 0 0 0 0 0 0 0 0 0 0 0 0 0 0 0 0 0 0 0 0 0 0 0 0 0 0 0 0 0 0 0 0 0 0 0 0 0 0
-0 -0 0 0 0 0 0 0 0 0 0 0 0 0 0 0 0 0 0 0 0 0 0 0 0 0 0 0 0 0 0 0 0 0 0 0 0 0 0 0 0 0 0
Wind_Speed
3 3 2 3 3 2 2 2 2 2 3 3 3 3 3 4 5 5 4 8 8 8 8 8 8 8 8 8 7 7 7 7 8 8 8 8 8 9 9 9 9 9 10
3 3 3 3 3 2 2 2 3 3 2 3 3 3 4 4 5 5 4 5 8 8 8 8 8 8 8 8 8 8 7 7 7 7 8 8 8 8 8 9 9 9 10
3 3 3 3 2 2 2 3 3 3 3 3 3 4 4 4 4 5 4 3 4 7 8 8 8 8 8 8 7 8 8 7 7 7 8 8 8 8 8 8 9 9 10
3 3 3 3 3 2 3 3 3 3 3 3 3 3 3 3 4 4 4 4 3 4 6 9 8 8 7 7 7 7 7 7 7 7 7 7 7 7 7 7 8 8 9
3 3 3 3 3 3 3 3 3 3 3 3 3 3 3 3 3 4 5 5 4 4 4 6 8 7 7 6 6 7 7 7 6 6 6 6 6 6 6 6 7 7 8
3 3 3 3 3 3 3 3 4 4 3 3 4 3 3 2 3 3 4 4 3 3 3 3 3 4 6 6 6 6 6 6 6 6 6 5 5 5 5 5 5 6 7
3 2 2 3 3 3 3 4 4 5 3 3 3 2 2 2 2 2 2 3 3 3 3 2 2 2 2 5 6 6 5 6 6 5 5 5 5 5 5 5 5 5 6
3 2 3 3 3 3 3 4 4 3 2 2 2 2 2 1 1 1 2 2 2 2 2 1 2 2 2 2 3 5 5 5 5 6 5 5 5 5 5 5 6 6 6
3 2 2 3 3 3 3 4 4 3 3 1 1 2 3 2 1 0 1 2 2 2 1 1 2 1 2 2 2 3 4 5 5 5 6 6 6 6 6 6 6 6 6
4 3 3 3 2 2 3 3 3 2 3 2 1 1 1 2 3 1 1 1 2 2 2 1 1 1 2 2 2 2 3 4 4 5 6 6 6 7 7 7 7 7 6
3 3 3 3 2 2 3 2 2 2 2 2 1 1 1 1 1 3 2 1 1 1 1 1 1 1 1 1 1 0 2 3 4 5 6 7 7 7 8 8 8 8 8
2 3 3 3 2 2 2 2 2 3 2 2 1 1 1 1 1 1 2 1 1 2 1 1 1 1 1 1 1 0 2 3 5 6 7 7 7 8 9 9 9 9 9
2 2 3 2 2 2 2 2 2 2 2 2 2 1 1 1 1 1 2 1 1 1 1 1 2 2 1 1 0 1 3 4 5 7 7 8 8 8 9 10 10 9 9
3 3 3 3 3 3 2 2 2 2 2 2 2 2 1 1 1 1 2 2 0 1 1 2 1 1 1 1 1 1 2 5 7 8 8 9 8 9 9 10 10 10 10
3 4 3 3 3 3 3 3 2 2 2 2 2 2 1 1 1 1 1 2 2 1 2 2 1 1 1 1 2 2 2 6 8 9 9 9 9 10 10 10 10 11 10
4 4 4 3 3 3 3 3 2 3 3 2 2 3 2 1 1 1 1 1 1 2 2 1 1 1 1 1 3 2 3 7 8 9 10 10 10 11 11 11 11 11 11
4 4 4 4 4 4 3 3 3 3 3 3 2 3 3 2 2 1 1 1 1 1 2 2 1 1 1 1 2 2 3 3 4 9 10 11 11 12 12 12 12 11 11
4 4 4 4 4 4 4 4 4 4 4 4 4 3 3 3 3 2 2 2 2 2 2 3 2 1 2 2 2 3 3 3 3 7 10 11 12 12 12 12 12 12 12
4 4 4 4 4 4 4 4 4 4 4 4 4 5 4 4 4 3 3 3 2 2 2 2 3 2 2 2 2 3 4 3 4 6 8 10 11 12 13 13 12 12 11
4 4 4 4 4 4 4 4 4 4 4 4 4 4 4 5 5 5 4 4 3 2 2 2 3 2 2 2 1 2 3 3 4 4 6 7 9 11 12 13 12 11 10
3 3 3 4 4 4 4 5 4 4 4 4 4 4 4 5 6 5 4 4 3 3 2 3 3 2 3 2 2 2 3 3 4 3 3 4 4 4 6 9 10 10 11
2 3 3 3 4 3 6 8 6 4 4 5 4 4 4 5 6 8 7 7 6 5 4 4 3 4 4 3 2 2 2 2 4 2 2 4 3 4 4 4 8 11 11
2 3 3 3 3 4 7 7 7 4 4 4 4 4 4 4 6 4 6 7 7 8 8 5 5 6 4 4 3 3 3 3 5 3 2 5 3 5 4 6 11 11 11
3 3 3 3 3 4 6 8 8 5 4 4 5 5 5 4 5 5 5 4 5 5 6 5 5 5 4 3 3 3 4 4 4 3 2 4 4 4 5 4 9 10 10
3 3 3 3 3 4 7 8 8 4 4 5 5 5 5 5 8 8 5 5 5 5 7 8 7 6 6 6 4 1 2 3 5 4 2 3 3 4 4 4 6 8 9
3 3 3 3 4 4 6 8 8 4 4 4 4 4 7 7 8 9 6 5 6 5 4 3 4 5 4 5 7 4 3 3 4 4 2 2 2 3 4 3 2 3 5
Wind_Direction
131 130 125 129 122 121 137 144 130 128 123 115 103 97 89 90 92 88 80 83 88 92 90 85 85 83 81 77 71 66 60 60 56 51 52 49 48 46 44 44 42 39 37
128 128 118 116 110 116 130 127 111 105 96 96 93 91 85 90 93 98 97 83 84 87 86 82 80 78 77 74 70 66 62 58 54 51 52 52 48 46 45 47 45 42 38
119 131 123 118 118 115 103 91 89 87 92 89 87 81 76 81 91 96 97 99 90 79 82 82 76 71 69 68 67 64 59 55 53 53 52 48 46 46 46 48 46 42 38
113 119 120 120 122 115 102 100 100 93 89 88 84 74 71 69 73 84 84 84 93 90 79 78 72 69 65 60 59 58 55 52 50 48 48 45 47 45 42 43 42 39 33
106 114 115 117 118 111 105 109 100 106 99 90 92 83 73 73 76 84 87 76 74 93 92 82 74 68 63 58 52 54 51 46 42 41 38 40 41 36 34 37 37 33 28
92 104 115 110 113 113 109 109 105 98 104 106 96 83 79 79 78 80 88 87 80 85 94 96 85 73 70 62 54 51 44 39 38 38 33 29 26 20 15 16 23 24 19
87 103 113 113 119 128 129 123 115 109 104 103 93 84 66 71 89 95 94 99 97 90 84 95 101 89 79 67 56 48 36 28 23 22 17 10 7 6 4 2 5 7 7
81 99 117 116 115 124 126 122 118 118 122 120 124 129 117 27 347 115 112 114 118 108 105 103 101 97 95 86 63 50 31 18 10 7 4 1 356 352 353 350 350 353 354
79 78 97 112 117 123 135 137 133 127 144 151 109 130 145 172 176 232 161 140 139 128 137 127 110 93 98 101 89 47 28 10 357 350 349 347 344 339 339 341 339 342 342
90 81 82 90 108 116 124 136 125 126 133 148 120 79 107 129 139 149 272 202 159 154 167 155 129 116 101 103 103 75 19 352 341 337 334 332 334 332 329 332 330 328 329
100 97 90 89 97 110 120 126 122 120 126 141 144 137 90 68 108 140 187 230 252 219 178 158 149 154 129 127 134 105 343 329 329 327 324 324 327 327 325 326 323 321 320
111 116 115 110 110 108 119 135 139 136 133 136 140 138 145 143 162 148 170 192 218 238 202 177 168 175 171 159 179 298 299 306 314 316 314 317 324 325 322 321 318 316 315
143 148 132 133 129 122 123 128 135 145 146 143 150 151 132 118 121 121 126 166 201 241 207 213 193 173 174 142 152 313 283 290 296 301 303 308 315 318 316 313 312 310 311
154 149 147 144 139 137 140 135 128 145 142 143 145 134 118 104 91 110 135 137 153 279 235 229 211 173 170 155 218 250 279 290 291 294 296 301 307 308 308 307 306 307 306
150 153 157 153 152 153 157 157 158 159 149 148 153 147 138 133 115 104 107 134 155 211 257 232 220 203 167 186 235 246 263 279 289 290 289 293 297 298 298 298 299 300 301
155 156 161 163 165 165 166 166 165 162 152 153 154 151 153 148 138 129 140 144 147 174 238 247 216 222 225 256 257 262 263 281 284 286 286 288 289 290 292 293 294 295 296
161 165 171 170 172 171 169 169 173 167 166 165 166 167 176 164 156 166 164 165 180 170 230 273 267 236 229 260 283 277 271 267 273 283 287 290 289 289 288 288 288 290 292
168 170 170 172 178 178 177 178 183 180 182 181 183 178 185 175 179 181 175 192 208 207 205 255 278 261 249 254 271 279 281 275 269 283 286 289 290 289 287 286 285 285 287
173 172 171 179 186 184 184 187 186 188 193 192 190 191 192 183 197 195 191 199 208 216 206 231 266 268 269 273 284 286 282 284 286 286 287 290 291 291 289 286 285 285 285
178 180 184 186 188 186 188 189 190 190 194 199 198 197 198 197 200 197 201 207 203 207 210 224 250 263 266 267 261 278 289 283 284 287 285 290 292 295 291 289 287 286 284
184 183 185 189 189 190 193 188 190 192 196 204 205 206 209 207 204 202 204 202 197 203 213 224 242 258 260 270 260 254 270 286 285 270 285 289 289 284 286 288 288 284 282
181 183 196 195 198 207 204 197 191 195 200 204 211 214 214 212 216 222 224 218 208 206 211 218 234 241 251 250 253 264 275 299 293 288 300 291 282 278 276 269 284 288 284
191 196 203 200 209 216 210 208 206 201 206 210 211 211 215 214 214 214 228 234 236 237 229 218 226 238 242 237 235 257 258 260 263 273 293 285 276 274 274 282 287 287 286
205 209 207 208 213 224 221 218 214 211 216 219 216 212 214 215 210 205 210 221 232 240 239 233 227 234 236 228 218 233 248 267 273 268 245 271 279 276 284 278 280 281 290
218 214 208 213 218 229 224 222 214 205 219 228 224 217 213 215 221 215 210 219 235 248 250 242 241 245 248 256 254 248 262 276 283 276 243 251 281 293 286 274 271 279 291
222 218 218 217 218 224 224 222 212 204 217 228 228 224 222 222 227 221 213 212 229 239 236 246 247 253 252 252 253 232 217 241 269 277 246 248 282 310 303 284 273 286 290